Regional Weather Roundup
Issued by NWS

Home | Current Version | Previous Version | Text Only | Print | Product List | Glossary Off
Versions: 1 2 3 4 5 6 7 8 9 10 11 12 13 14 15 16 17 18 19 20 21 22 23 24 25 26 27 28 29 30 31 32 33 34 35 36 37 38 39 40 41 42 43 44 45 46 47 48 49 50

000
ASUS44 KMEG 251310
RWRTN
TENNESSEE HOURLY STATE WEATHER ROUNDUP
NATIONAL WEATHER SERVICE MEMPHIS TN
800 AM CDT MON SEP 25 2017

TNZ002-004-019-021-049-052-054-088>092-251400-
WEST TENNESSEE

CITY           SKY/WX    TMP DP  RH WIND       PRES   REMARKS
MEMPHIS INTL   MOSUNNY   74  67  78 CALM      30.00S
NWS MEMPHIS      N/A     70 N/A N/A MISG        N/A
JACKSON        SUNNY     68  67  96 CALM      30.03S
DYERSBURG      SUNNY     68  67  96 CALM      30.03S
SOMERVILLE       N/A     68  66  94 CALM      30.01S
COVINGTON      SUNNY     68  66  94 CALM      30.02S
BOLIVAR        SUNNY     66  66 100 CALM      30.02S
PARIS          SUNNY     70  68  94 CALM      30.03S
HUNTINGDON     SUNNY     70  68  94 CALM      30.03R
LEXINGTON      SUNNY     66  66 100 CALM      30.04R FOG
SELMER         SUNNY     70  66  88 CALM      30.03S
SAVANNAH       SUNNY     66  64  94 CALM      30.03R
$$

TNZ008-025-027-028-033-062-065-066-251400-
NORTH MIDDLE TENNESSEE

CITY           SKY/WX    TMP DP  RH WIND       PRES   REMARKS
NASHVILLE      MOSUNNY   69  66  90 CALM      30.06R
PORTLAND       SUNNY     68  66  94 CALM      30.05S
CLARKSVILLE    SUNNY     69  67  93 CALM      30.05S FOG
SMYRNA         SUNNY     69  64  85 CALM      30.07R
COOKEVILLE     SUNNY     64  64 100 CALM      30.06F
GALLATIN       SUNNY     66  64  94 CALM      30.08R
CROSSVILLE     MOSUNNY   63  62  97 CALM      30.11S FOG
$$

TNZ061-075-076-078-094-096-097-251400-
SOUTH MIDDLE TENNESSEE

CITY           SKY/WX    TMP DP  RH WIND       PRES   REMARKS
FAYETTEVILLE   PTSUNNY   68  66  94 CALM      30.06R
TULLAHOMA      SUNNY     64  61  88 CALM      30.08S
WINCHESTER     SUNNY     64  63  94 CALM      30.07S
MCMINNVILLE    SUNNY     63  63 100 CALM      30.07S
COLUMBIA       SUNNY     66 N/A N/A CALM      30.04R
SHELBYVILLE    SUNNY     68  66  94 CALM      30.06S
$$

TNZ017-018-042-046-047-251400-
NORTHEAST TENNESSEE

CITY           SKY/WX    TMP DP  RH WIND       PRES   REMARKS
TRI CITIES     CLOUDY    65  60  84 CALM      30.12R
ELIZABETHTON   CLOUDY    66  59  77 NE5       30.13R
$$

TNZ012-013-036-069-073-074-251400-
CENTRAL EAST TENNESSEE

CITY           SKY/WX    TMP DP  RH WIND       PRES   REMARKS
KNOXVILLE      CLOUDY    68  62  81 CALM      30.07S
OAK RIDGE      CLOUDY    66  63  90 CALM      30.10R
DOWNTOWN KNOXV SUNNY     66  66 100 CALM      30.08R
GATLINBURG     SUNNY     63  57  82 CALM      30.09R
MORRISTOWN     SUNNY     68  59  73 CALM      30.09S
JACKSBORO      SUNNY     63  63 100 CALM      30.13R FOG
$$

TNZ083-085-099-251400-
SOUTHEAST TENNESSEE

CITY           SKY/WX    TMP DP  RH WIND       PRES   REMARKS
CHATTANOOGA    PTSUNNY   70  65  84 CALM      30.07R
DAYTON         MOSUNNY   64  64 100 CALM      30.06S FOG
$$

SKY/WX REPORTED AS FAIR MEANS FEW OR NO CLOUDS BELOW
12 THOUSAND FEET.





USA.gov is the U.S. government's official web portal to all federal, state and local government web resources and services.